FW7817 Weather Reports


Display with metric or nautical units.
time (UTC)temp
F
wind
direction
speed
MPH
gust
MPH
rain 1hr
in
rain 24hr
in
rain mn
in
humidity
%
barometer
mb
20260506190005 60 192 2.0 6.0 0.00 0.03 0.00 41 1020.2
20260506185458 59 59 2.0 6.0 0.00 0.03 0.00 42 1020.2
20260506184952 59 326 3.0 12.0 0.00 0.03 0.00 41 1020.3
20260506184445 59 304 3.0 12.0 0.00 0.03 0.00 44 1020.4
20260506183939 59 306 3.0 9.0 0.00 0.03 0.00 43 1020.4
20260506183434 59 315 4.0 9.0 0.00 0.03 0.00 38 1020.4
20260506182422 59 312 3.0 10.0 0.00 0.03 0.00 45 1020.3
20260506181916 59 92 3.0 9.0 0.00 0.03 0.00 41 1020.4
20260506181410 59 283 2.0 8.0 0.00 0.03 0.00 44 1020.5
20260506180359 60 287 2.0 4.0 0.00 0.03 0.00 50 1020.6
20260506175345 59 279 2.0 6.0 0.00 0.03 0.00 45 1020.7
20260506174340 58 37 2.0 7.0 0.00 0.03 0.00 48 1020.7
20260506173838 58 16 2.0 7.0 0.00 0.03 0.00 39 1020.7
20260506173338 59 340 2.0 7.0 0.00 0.03 0.00 44 1020.7
20260506172836 58 281 1.0 7.0 0.00 0.03 0.00 42 1020.8
20260506172337 58 52 2.0 7.0 0.00 0.03 0.00 43 1020.9
20260506171834 57 49 2.0 4.0 0.00 0.03 0.00 40 1020.7
20260506171334 58 322 2.0 5.0 0.00 0.03 0.00 43 1020.9
20260506170834 58 273 2.0 9.0 0.00 0.03 0.00 45 1021.0
20260506170334 57 302 2.0 9.0 0.00 0.03 0.00 46 1021.0
20260506165834 56 284 1.0 4.0 0.00 0.03 0.00 46 1021.0
20260506165330 56 286 2.0 7.0 0.00 0.03 0.00 46 1021.0
20260506164831 56 306 2.0 7.0 0.00 0.04 0.00 43 1021.0
20260506164331 56 300 2.0 7.0 0.00 0.04 0.00 47 1021.0
20260506163830 56 300 2.0 5.0 0.00 0.04 0.00 46 1021.1
20260506162829 56 283 2.0 8.0 0.00 0.04 0.00 49 1021.0
20260506162329 56 329 2.0 7.0 0.00 0.04 0.00 48 1021.1
20260506161830 56 310 2.0 7.0 0.00 0.04 0.00 48 1021.0
20260506161330 56 294 3.0 7.0 0.00 0.04 0.00 48 1021.0
20260506160325 56 300 1.0 5.0 0.00 0.04 0.00 56 1020.7
20260506155826 55 311 1.0 5.0 0.00 0.04 0.00 53 1020.6
20260506154826 56 298 2.0 6.0 0.00 0.04 0.00 53 1020.7
20260506154323 56 321 2.0 8.0 0.00 0.05 0.00 54 1020.6
20260506153821 56 310 3.0 8.0 0.00 0.05 0.00 53 1020.5
20260506152819 57 304 2.0 7.0 0.00 0.05 0.00 53 1020.5
20260506152319 57 304 2.0 10.0 0.00 0.05 0.00 54 1020.6
20260506151820 57 298 2.0 10.0 0.00 0.05 0.00 54 1020.6
20260506151319 57 305 2.0 8.0 0.00 0.05 0.00 59 1020.4
20260506150818 56 302 2.0 7.0 0.00 0.05 0.00 60 1020.3
20260506150318 56 275 2.0 8.0 0.00 0.05 0.00 57 1020.4
20260506145819 55 313 2.0 8.0 0.00 0.05 0.00 56 1020.4
20260506145313 55 306 2.0 8.0 0.00 0.05 0.00 64 1020.5
20260506144259 54 302 2.0 7.0 0.00 0.05 0.00 63 1020.5
20260506143755 54 297 3.0 8.0 0.00 0.05 0.00 66 1020.5
20260506143247 53 279 2.0 8.0 0.00 0.05 0.00 67 1020.5
20260506142738 53 267 1.0 5.0 0.00 0.05 0.00 71 1020.5
20260506141731 51 286 2.0 7.0 0.00 0.05 0.00 73 1020.5
20260506141225 51 294 2.0 6.0 0.00 0.05 0.00 73 1020.5
20260506140723 50 315 1.0 6.0 0.00 0.05 0.00 77 1020.6
20260506140223 50 279 1.0 3.0 0.00 0.05 0.00 78 1020.5
20260506135722 49 234 1.0 4.0 0.00 0.06 0.00 80 1020.5
20260506135216 49 234 1.0 6.0 0.00 0.06 0.00 80 1020.4
20260506134709 48 244 1.0 6.0 0.00 0.07 0.00 81 1020.3
20260506133658 47 227 1.0 3.0 0.00 0.09 0.00 83 1020.2
20260506133150 47 254 1.0 2.0 0.00 0.10 0.00 83 1020.1
20260506132645 47 5 0.0 3.0 0.00 0.10 0.00 83 1020.1
20260506132139 47 298 0.0 3.0 0.00 0.11 0.00 84 1020.2
20260506131634 46 299 0.0 1.0 0.00 0.11 0.00 84 1019.8
20260506130620 46 300 1.0 4.0 0.00 0.12 0.00 83 1019.4
20260506130115 46 288 0.0 3.0 0.00 0.12 0.00 84 1019.5
20260506125609 46 289 0.0 3.0 0.00 0.12 0.00 84 1019.5
20260506125103 45 289 0.0 2.0 0.00 0.12 0.00 85 1019.3
20260506124558 45 289 0.0 2.0 0.00 0.14 0.00 85 1019.1
20260506123544 44 289 0.0 0.0 0.00 0.15 0.00 86 1019.0
20260506123038 44 290 0.0 2.0 0.00 0.15 0.00 85 1018.9
20260506122532 44 290 0.0 2.0 0.00 0.15 0.00 85 1018.8
20260506122027 44 289 0.0 1.0 0.00 0.16 0.00 85 1018.6
20260506121522 44 289 0.0 0.0 0.00 0.18 0.00 84 1018.6
20260506121016 44 289 0.0 1.0 0.00 0.21 0.00 84 1018.7
20260506120508 44 289 0.0 1.0 0.00 0.26 0.00 83 1018.5
20260506120003 44 289 0.0 1.0 0.00 0.26 0.00 83 1018.3
20260506114951 44 289 0.0 1.0 0.00 0.26 0.00 82 1018.2
20260506114446 44 289 0.0 1.0 0.00 0.26 0.00 82 1018.1
20260506113940 44 289 0.0 0.0 0.00 0.26 0.00 82 1018.0
20260506113435 45 289 0.0 0.0 0.00 0.26 0.00 81 1017.8
20260506112928 45 289 0.0 0.0 0.00 0.26 0.00 80 1017.8
20260506112421 45 289 0.0 0.0 0.00 0.26 0.00 79 1017.6
20260506111914 45 289 0.0 0.0 0.00 0.27 0.00 79 1017.7
20260506111410 45 289 0.0 0.0 0.00 0.27 0.00 79 1017.6
20260506110357 46 289 0.0 1.0 0.00 0.28 0.00 78 1017.6
20260506105345 46 289 0.0 1.0 0.00 0.28 0.00 77 1017.9
20260506104839 46 292 0.0 2.0 0.00 0.30 0.00 77 1018.0
20260506104332 46 292 0.0 3.0 0.00 0.33 0.00 78 1018.1
20260506103333 46 5 1.0 4.0 0.00 0.33 0.00 78 1018.4
20260506102835 46 355 0.0 3.0 0.00 0.33 0.00 79 1018.4
20260506102331 46 327 0.0 4.0 0.00 0.33 0.00 79 1018.6
20260506101829 46 69 1.0 7.0 0.00 0.33 0.00 80 1018.5
20260506101329 46 5 1.0 7.0 0.00 0.33 0.00 81 1018.7
20260506100829 46 291 2.0 5.0 0.00 0.33 0.00 81 1018.7
20260506100327 45 290 2.0 9.0 0.00 0.33 0.00 81 1018.7
20260506094323 46 229 1.0 5.0 0.00 0.33 0.00 88 1018.6
20260506093823 46 282 1.0 5.0 0.00 0.33 0.00 89 1018.6
20260506092823 46 287 0.0 4.0 0.00 0.33 0.00 88 1018.2
20260506092323 46 297 1.0 4.0 0.00 0.33 0.00 88 1018.4
20260506091825 46 281 1.0 4.0 0.00 0.33 0.00 88 1017.9
20260506091324 46 301 1.0 4.0 0.00 0.33 0.00 88 1017.6
20260506090322 46 144 0.0 4.0 0.00 0.33 0.00 87 1017.2
20260506085820 46 144 0.0 2.0 0.00 0.33 0.00 87 1016.9
20260506085320 46 144 1.0 2.0 0.00 0.33 0.00 87 1017.1
20260506084821 46 144 1.0 3.0 0.00 0.33 0.00 87 1017.2
20260506084320 46 144 0.0 3.0 0.00 0.33 0.00 86 1017.2
20260506083821 46 144 0.0 1.0 0.00 0.33 0.00 86 1017.2
20260506083320 46 144 0.0 1.0 0.00 0.33 0.00 86 1017.3
20260506082820 46 144 0.0 1.0 0.00 0.33 0.00 86 1017.1
20260506082320 46 144 0.0 1.0 0.00 0.33 0.00 86 1017.2
20260506081822 46 144 0.0 1.0 0.00 0.33 0.00 85 1017.3
20260506081320 46 144 0.0 1.0 0.00 0.33 0.00 85 1017.3
20260506080820 46 144 0.0 0.0 0.00 0.33 0.00 85 1017.3
20260506080321 46 144 0.0 1.0 0.00 0.33 0.00 85 1017.4
20260506073301 46 144 0.0 0.0 0.00 0.33 0.00 84 1016.6
20260506072754 46 144 0.0 0.0 0.00 0.33 0.00 84 1016.2
20260506072247 46 144 0.0 0.0 0.00 0.33 0.00 84 1016.2
20260506071742 46 144 0.0 0.0 0.00 0.33 0.00 84 1016.2
20260506071236 46 144 0.0 1.0 0.00 0.33 0.00 84 1016.1
20260506070224 46 144 1.0 3.0 0.00 0.33 0.00 83 1016.1
20260506062134 46 92 0.0 3.0 0.00 0.36 0.00 83 1015.5
20260506061629 46 81 0.0 2.0 0.00 0.37 0.00 83 1015.4
20260506061122 46 82 0.0 2.0 0.00 0.38 0.00 83 1015.7
20260506060617 46 82 0.0 2.0 0.00 0.38 0.00 83 1015.9
20260506060110 46 43 0.0 2.0 0.00 0.39 0.00 82 1016.1
20260506051032 47 20 0.0 2.0 0.01 0.40 0.00 81 1016.8
20260506050530 47 20 0.0 2.0 0.01 0.40 0.00 81 1016.7
20260506044528 47 16 1.0 2.0 0.03 0.40 0.40 79 1016.9
20260506044029 47 9 1.0 2.0 0.03 0.40 0.40 79 1016.9
20260506043028 47 317 1.0 6.0 0.02 0.39 0.39 77 1017.0
20260506042527 48 306 1.0 7.0 0.02 0.39 0.39 76 1017.0
20260506042025 48 350 2.0 7.0 0.02 0.39 0.39 76 1017.0
20260506041525 48 5 2.0 9.0 0.02 0.39 0.39 75 1017.1
20260506041026 48 355 3.0 9.0 0.02 0.39 0.39 74 1017.1
20260506040523 49 288 4.0 11.0 0.02 0.39 0.39 73 1017.2
20260506040021 49 304 5.0 14.0 0.01 0.38 0.38 72 1017.0
20260506035524 50 284 4.0 14.0 0.01 0.38 0.38 69 1016.9
20260506035022 50 316 3.0 11.0 0.01 0.38 0.38 66 1016.8
20260506034521 51 338 2.0 11.0 0.00 0.37 0.38 65 1016.7
20260506034022 51 306 2.0 9.0 0.00 0.37 0.37 65 1016.6
20260506033521 51 309 2.0 9.0 0.00 0.37 0.37 63 1016.5
20260506033020 51 73 2.0 5.0 0.00 0.37 0.37 64 1016.5
20260506032519 51 286 2.0 5.0 0.00 0.37 0.37 66 1016.5
20260506032019 51 310 1.0 5.0 0.00 0.37 0.37 70 1016.3
20260506031518 51 305 1.0 3.0 0.00 0.37 0.37 68 1015.9
20260506031017 51 254 0.0 3.0 0.00 0.37 0.37 68 1015.6
20260506030515 51 331 0.0 3.0 0.00 0.37 0.37 66 1015.4
20260506030013 52 330 0.0 3.0 0.00 0.37 0.37 66 1015.5
20260506025513 52 0 0.0 1.0 0.00 0.37 0.37 66 1015.3
20260506025013 52 0 0.0 0.0 0.00 0.37 0.37 65 1015.0
20260506024513 52 0 0.0 2.0 0.00 0.37 0.37 65 1014.9
20260506024013 52 0 0.0 2.0 0.00 0.37 0.37 65 1014.8
20260506023513 52 0 0.0 4.0 0.00 0.37 0.37 65 1014.9
20260506023012 52 325 0.0 4.0 0.00 0.37 0.37 64 1014.6
20260506022512 52 47 1.0 3.0 0.00 0.37 0.37 64 1014.4
20260506022012 52 290 1.0 4.0 0.00 0.37 0.37 64 1014.4
20260506021512 52 283 1.0 4.0 0.00 0.37 0.37 64 1014.4
20260506021016 52 236 1.0 3.0 0.00 0.37 0.37 64 1014.3
20260506020515 52 233 0.0 3.0 0.00 0.37 0.37 65 1014.3
20260506020015 52 297 1.0 7.0 0.00 0.37 0.37 65 1014.2
20260506015515 52 297 1.0 7.0 0.00 0.37 0.37 64 1014.1
20260506015013 53 306 1.0 3.0 0.00 0.37 0.37 65 1014.1
20260506014513 53 305 1.0 3.0 0.00 0.37 0.37 65 1014.0
20260506014013 53 304 1.0 3.0 0.00 0.37 0.37 64 1013.8
20260506013513 53 304 1.0 3.0 0.00 0.37 0.37 64 1013.7
20260506013012 53 309 1.0 3.0 0.00 0.37 0.37 64 1013.8
20260506012512 53 309 1.0 3.0 0.00 0.37 0.37 63 1013.7
20260506012013 53 311 1.0 3.0 0.00 0.37 0.37 63 1013.8
20260506011512 53 315 1.0 3.0 0.00 0.37 0.37 63 1013.7
20260506011007 53 302 1.0 3.0 0.00 0.37 0.37 63 1013.7
20260506010500 54 285 0.0 2.0 0.00 0.37 0.37 62 1013.7
20260506005953 54 284 0.0 2.0 0.00 0.37 0.37 62 1013.6
20260506005453 54 284 0.0 2.0 0.00 0.37 0.37 62 1013.6
20260506004452 54 308 0.0 2.0 0.00 0.37 0.37 62 1013.4
20260506003952 54 308 0.0 2.0 0.00 0.37 0.37 62 1013.2
20260506003452 54 303 0.0 2.0 0.00 0.37 0.37 61 1013.3
20260506002955 55 304 0.0 3.0 0.00 0.37 0.37 61 1013.2
20260506002455 55 303 0.0 3.0 0.00 0.37 0.37 61 1013.0
20260506001952 55 305 0.0 4.0 0.00 0.37 0.37 61 1013.0
20260506000950 55 269 1.0 3.0 0.00 0.37 0.37 60 1012.8
20260506000452 55 304 1.0 3.0 0.00 0.37 0.37 59 1012.8
20260505235951 55 48 1.0 3.0 0.00 0.37 0.37 60 1012.8
20260505234449 55 304 1.0 4.0 0.00 0.37 0.37 59 1013.2
20260505233948 55 328 1.0 3.0 0.00 0.37 0.37 60 1013.3
20260505233450 55 347 1.0 4.0 0.00 0.37 0.37 58 1013.3
20260505232944 55 299 1.0 6.0 0.00 0.37 0.37 59 1013.2
20260505231932 55 58 1.0 5.0 0.00 0.37 0.37 60 1012.8
20260505230922 55 297 2.0 4.0 0.00 0.37 0.37 64 1012.7
20260505230414 55 339 2.0 8.0 0.00 0.37 0.37 67 1012.7
20260505225402 55 302 2.0 7.0 0.00 0.37 0.37 69 1012.7
20260505224856 55 306 2.0 7.0 0.00 0.37 0.37 70 1012.7
20260505224351 55 287 2.0 8.0 0.00 0.37 0.37 71 1012.8
20260505223845 55 221 1.0 8.0 0.00 0.37 0.37 72 1012.9
20260505222327 55 297 1.0 5.0 0.00 0.37 0.37 74 1012.7
20260505221316 55 305 2.0 5.0 0.00 0.37 0.37 74 1012.5
20260505220307 54 303 2.0 8.0 0.00 0.37 0.37 74 1012.8
20260505215756 54 313 2.0 8.0 0.00 0.37 0.37 73 1012.9
20260505215251 55 301 1.0 3.0 0.00 0.37 0.37 75 1012.9
20260505214750 54 301 2.0 5.0 0.00 0.37 0.37 75 1013.2
20260505214240 54 305 2.0 7.0 0.00 0.37 0.37 75 1013.2
20260505213733 54 302 2.0 7.0 0.00 0.37 0.37 74 1013.2
20260505213226 54 304 1.0 4.0 0.00 0.37 0.37 75 1013.3
20260505212720 54 299 1.0 3.0 0.00 0.37 0.37 75 1013.2
20260505212215 54 299 1.0 4.0 0.00 0.37 0.37 74 1013.3
20260505211709 54 305 1.0 5.0 0.00 0.37 0.37 74 1013.3
20260505211203 54 325 1.0 5.0 0.00 0.37 0.37 74 1013.3
20260505210656 54 294 1.0 4.0 0.00 0.37 0.37 74 1013.4
20260505210151 54 313 2.0 7.0 0.00 0.37 0.37 74 1013.4
20260505205644 54 289 1.0 7.0 0.00 0.37 0.37 74 1013.5
20260505205139 54 304 1.0 4.0 0.00 0.37 0.37 74 1013.5
20260505204632 54 299 1.0 4.0 0.00 0.37 0.37 74 1013.6
20260505204126 54 291 1.0 4.0 0.00 0.37 0.37 73 1013.5
20260505203114 54 128 2.0 5.0 0.00 0.37 0.37 71 1013.5
20260505202608 54 40 2.0 4.0 0.00 0.37 0.37 72 1013.5
20260505202102 54 306 2.0 4.0 0.00 0.37 0.37 73 1013.6
20260505201557 53 300 1.0 5.0 0.00 0.37 0.37 73 1013.7
20260505201050 53 304 1.0 5.0 0.00 0.37 0.37 72 1013.9
20260505200545 53 306 1.0 4.0 0.00 0.37 0.37 71 1013.8
20260505200039 53 329 1.0 6.0 0.00 0.37 0.37 72 1013.7
20260505195533 53 56 1.0 4.0 0.00 0.37 0.37 73 1013.6
20260505195026 53 5 1.0 4.0 0.00 0.37 0.37 73 1013.7
20260505194522 53 66 1.0 4.0 0.00 0.37 0.37 73 1013.9
20260505194016 53 13 1.0 2.0 0.00 0.37 0.37 75 1013.8
20260505193514 53 298 1.0 3.0 0.00 0.37 0.37 74 1014.0
20260505193014 53 298 1.0 3.0 0.00 0.37 0.37 75 1014.2
20260505192012 53 294 1.0 4.0 0.00 0.37 0.37 76 1014.0
20260505191512 53 296 1.0 6.0 0.00 0.37 0.37 76 1013.9
20260505191012 53 40 1.0 6.0 0.00 0.37 0.37 76 1014.1